When you browse on this site, cookies collect data to enhance your experience and personalize the content and advertising you see.
Visit our Privacy Policy to learn more. By continuing to use the site, you agree to this use of cookies and data.
  • In United Kingdom
  • List of Countries
  • For 7 days
  • Water Temperature
  • Satellite Maps
  • Weather Map
  • Weather Widgets
  • user-avatar
    Login

    Hourly Weather Kanelones

    Today, 24 March, Sunday

    Time Temperature Precipitation Wind Pressure Humidity
    00:00 +18°C° 0 mm 4 mps 756 mmHg 75%
    01:00 +18°C° 0 mm 4 mps 756 mmHg 75%
    02:00 +18°C° 0 mm 4 mps 756 mmHg 74%
    03:00 +18°C° 0 mm 4 mps 756 mmHg 72%
    04:00 +18°C° 0 mm 4 mps 756 mmHg 69%
    05:00 +19°C° 0 mm 4 mps 756 mmHg 67%
    06:00 +20°C° 0 mm 5 mps 756 mmHg 64%
    07:00 +21°C° 0 mm 6 mps 757 mmHg 61%
    08:00 +22°C° 0 mm 6 mps 757 mmHg 58%
    09:00 +22°C° 0 mm 7 mps 758 mmHg 53%
    10:00 +22°C° 0 mm 7 mps 758 mmHg 49%
    11:00 +23°C° 0 mm 8 mps 758 mmHg 45%
    12:00 +23°C° 0 mm 8 mps 758 mmHg 45%
    13:00 +23°C° 0 mm 8 mps 758 mmHg 45%
    14:00 +23°C° 0 mm 8 mps 758 mmHg 46%
    15:00 +22°C° 0 mm 8 mps 758 mmHg 48%
    16:00 +21°C° 0 mm 7 mps 758 mmHg 50%
    17:00 +20°C° 0 mm 7 mps 758 mmHg 53%
    18:00 +20°C° 0 mm 7 mps 758 mmHg 55%
    19:00 +19°C° 0 mm 6 mps 759 mmHg 57%
    20:00 +19°C° 0 mm 6 mps 759 mmHg 59%
    21:00 +17°C° 0 mm 6 mps 759 mmHg 63%
    22:00 +16°C° 0 mm 5 mps 759 mmHg 67%
    23:00 +15°C° 0 mm 5 mps 759 mmHg 71%

    Tomorrow, 25 March, Monday

    Time Temperature Precipitation Wind Pressure Humidity
    00:00 +15°C° 0.1 mm 5 mps 759 mmHg 73%
    01:00 +15°C° 0.1 mm 5 mps 759 mmHg 74%
    02:00 +16°C° 0.1 mm 5 mps 759 mmHg 76%
    03:00 +16°C° 0.1 mm 5 mps 759 mmHg 77%
    04:00 +15°C° 0.1 mm 5 mps 759 mmHg 78%
    05:00 +15°C° 0.1 mm 5 mps 759 mmHg 79%
    06:00 +16°C° 0.2 mm 5 mps 759 mmHg 79%
    07:00 +16°C° 0.2 mm 5 mps 760 mmHg 80%
    08:00 +17°C° 0.2 mm 5 mps 760 mmHg 80%
    09:00 +17°C° 0.4 mm 5 mps 761 mmHg 82%
    10:00 +18°C° 0.4 mm 4 mps 761 mmHg 83%
    11:00 +18°C° 0.4 mm 4 mps 761 mmHg 84%
    12:00 +18°C° 0.3 mm 4 mps 761 mmHg 82%
    13:00 +18°C° 0.3 mm 4 mps 761 mmHg 80%
    14:00 +19°C° 0.3 mm 4 mps 761 mmHg 78%
    15:00 +18°C° 0.1 mm 4 mps 761 mmHg 76%
    16:00 +17°C° 0.1 mm 5 mps 761 mmHg 75%
    17:00 +17°C° 0.1 mm 5 mps 761 mmHg 73%
    18:00 +17°C° 0 mm 4 mps 762 mmHg 75%
    19:00 +15°C° 0 mm 4 mps 762 mmHg 77%
    20:00 +14°C° 0 mm 4 mps 763 mmHg 79%
    21:00 +14°C° 0 mm 4 mps 763 mmHg 77%
    22:00 +16°C° 0 mm 3 mps 763 mmHg 75%
    23:00 +16°C° 0 mm 3 mps 763 mmHg 73%

    Day after tomorrow, 26 March, Tuesday

    Time Temperature Precipitation Wind Pressure Humidity
    00:00 +16°C° 0 mm 3 mps 764 mmHg 72%
    01:00 +16°C° 0 mm 3 mps 764 mmHg 71%
    02:00 +15°C° 0 mm 2 mps 764 mmHg 70%
    03:00 +16°C° 0 mm 2 mps 764 mmHg 70%
    04:00 +16°C° 0 mm 2 mps 764 mmHg 70%
    05:00 +16°C° 0 mm 2 mps 764 mmHg 70%
    06:00 +16°C° 0 mm 2 mps 764 mmHg 68%
    07:00 +17°C° 0 mm 3 mps 765 mmHg 66%
    08:00 +17°C° 0 mm 3 mps 765 mmHg 64%
    09:00 +18°C° 0 mm 3 mps 765 mmHg 59%
    10:00 +19°C° 0 mm 3 mps 766 mmHg 54%
    11:00 +20°C° 0 mm 4 mps 766 mmHg 49%
    12:00 +21°C° 0 mm 4 mps 765 mmHg 47%
    13:00 +22°C° 0 mm 4 mps 765 mmHg 46%
    14:00 +23°C° 0 mm 4 mps 765 mmHg 44%
    15:00 +22°C° 0 mm 4 mps 765 mmHg 50%
    16:00 +21°C° 0 mm 4 mps 765 mmHg 56%
    17:00 +20°C° 0 mm 5 mps 765 mmHg 61%
    18:00 +19°C° 0.1 mm 4 mps 765 mmHg 69%
    19:00 +17°C° 0.1 mm 4 mps 766 mmHg 77%
    20:00 +15°C° 0.1 mm 4 mps 766 mmHg 85%
    21:00 +14°C° 0.1 mm 3 mps 767 mmHg 86%
    22:00 +14°C° 0.1 mm 3 mps 767 mmHg 87%
    23:00 +14°C° 0.1 mm 3 mps 767 mmHg 87%

    27 March, Wednesday

    Time Temperature Precipitation Wind Pressure Humidity
    00:00 +14°C° 0 mm 3 mps 767 mmHg 87%
    01:00 +14°C° 0 mm 3 mps 767 mmHg 87%
    02:00 +15°C° 0 mm 2 mps 767 mmHg 87%
    03:00 +14°C° 0 mm 2 mps 767 mmHg 88%
    04:00 +14°C° 0 mm 2 mps 767 mmHg 88%
    05:00 +14°C° 0 mm 2 mps 767 mmHg 89%
    06:00 +14°C° 0 mm 3 mps 768 mmHg 82%
    07:00 +17°C° 0 mm 3 mps 768 mmHg 76%
    08:00 +18°C° 0 mm 4 mps 768 mmHg 69%
    09:00 +20°C° 0 mm 4 mps 768 mmHg 61%
    10:00 +21°C° 0 mm 4 mps 769 mmHg 53%
    11:00 +23°C° 0 mm 4 mps 769 mmHg 45%
    12:00 +23°C° 0 mm 4 mps 768 mmHg 46%
    13:00 +23°C° 0 mm 4 mps 768 mmHg 46%
    14:00 +23°C° 0 mm 4 mps 767 mmHg 47%
    15:00 +22°C° 0 mm 4 mps 767 mmHg 52%
    16:00 +22°C° 0 mm 4 mps 767 mmHg 56%
    17:00 +22°C° 0 mm 4 mps 767 mmHg 60%
    18:00 +20°C° 0 mm 4 mps 767 mmHg 67%
    19:00 +19°C° 0 mm 4 mps 767 mmHg 73%
    20:00 +17°C° 0 mm 4 mps 768 mmHg 80%
    21:00 +15°C° 0 mm 4 mps 768 mmHg 81%
    22:00 +16°C° 0 mm 3 mps 768 mmHg 83%
    23:00 +14°C° 0 mm 3 mps 768 mmHg 85%

    28 March, Thursday

    Time Temperature Precipitation Wind Pressure Humidity
    00:00 +14°C° 0 mm 3 mps 768 mmHg 87%
    01:00 +13°C° 0 mm 3 mps 768 mmHg 89%
    02:00 +13°C° 0 mm 3 mps 768 mmHg 91%
    03:00 +14°C° 0 mm 2 mps 768 mmHg 91%
    04:00 +14°C° 0 mm 2 mps 768 mmHg 92%
    05:00 +14°C° 0 mm 2 mps 768 mmHg 93%
    06:00 +14°C° 0 mm 3 mps 768 mmHg 88%
    07:00 +17°C° 0 mm 3 mps 768 mmHg 83%
    08:00 +18°C° 0 mm 3 mps 768 mmHg 78%
    09:00 +21°C° 0 mm 3 mps 768 mmHg 68%
    10:00 +24°C° 0 mm 3 mps 768 mmHg 58%
    11:00 +26°C° 0 mm 3 mps 767 mmHg 48%
    12:00 +27°C° 0 mm 3 mps 767 mmHg 44%
    13:00 +28°C° 0 mm 3 mps 766 mmHg 40%
    14:00 +29°C° 0 mm 2 mps 765 mmHg 36%
    15:00 +28°C° 0 mm 2 mps 765 mmHg 41%
    16:00 +27°C° 0 mm 2 mps 765 mmHg 45%
    17:00 +26°C° 0 mm 2 mps 765 mmHg 49%
    18:00 +24°C° 0 mm 2 mps 765 mmHg 57%
    19:00 +21°C° 0 mm 2 mps 765 mmHg 64%
    20:00 +20°C° 0 mm 3 mps 765 mmHg 72%
    21:00 +19°C° 0 mm 3 mps 765 mmHg 78%
    22:00 +19°C° 0 mm 3 mps 765 mmHg 84%
    23:00 +18°C° 0 mm 4 mps 764 mmHg 91%

    29 March, Friday

    Time Temperature Precipitation Wind Pressure Humidity
    00:00 +18°C° 0 mm 3 mps 764 mmHg 90%
    01:00 +18°C° 0 mm 3 mps 764 mmHg 90%
    02:00 +18°C° 0 mm 3 mps 764 mmHg 90%
    03:00 +18°C° 0 mm 3 mps 764 mmHg 91%
    04:00 +17°C° 0 mm 3 mps 763 mmHg 93%
    05:00 +17°C° 0 mm 3 mps 763 mmHg 95%
    06:00 +18°C° 0 mm 3 mps 763 mmHg 90%
    07:00 +19°C° 0 mm 3 mps 763 mmHg 84%
    08:00 +21°C° 0 mm 3 mps 763 mmHg 79%
    09:00 +24°C° 0 mm 3 mps 763 mmHg 69%
    10:00 +26°C° 0 mm 3 mps 763 mmHg 60%
    11:00 +28°C° 0 mm 3 mps 762 mmHg 50%
    12:00 +29°C° 0 mm 3 mps 761 mmHg 46%
    13:00 +30°C° 0 mm 2 mps 761 mmHg 43%
    14:00 +31°C° 0 mm 2 mps 760 mmHg 39%
    15:00 +30°C° 0 mm 2 mps 759 mmHg 43%
    16:00 +30°C° 0 mm 2 mps 759 mmHg 47%
    17:00 +29°C° 0 mm 2 mps 759 mmHg 50%
    18:00 +27°C° 0 mm 2 mps 759 mmHg 56%
    19:00 +25°C° 0 mm 2 mps 759 mmHg 62%
    20:00 +23°C° 0 mm 2 mps 759 mmHg 68%
    21:00 +23°C° 0 mm 2 mps 759 mmHg 70%
    22:00 +21°C° 0 mm 2 mps 759 mmHg 72%
    23:00 +21°C° 0 mm 2 mps 759 mmHg 73%
    Show more